465  
ASUS44 KMAF 251210  
RWRMAF  
MIDLAND AREA WEATHER ROUNDUP  
NATIONAL WEATHER SERVICE MIDLAND TX  
700 AM CDT SAT MAY 25 2024  
   
..IN SOUTHWEST TEXAS AND SOUTHEAST NEW MEXICO
 
 
 
CITY SKY/WX TMP DP RH WIND PRES REMARKS
 
ALPINE CLEAR 56 1 10 SW9 29.98R  
ANDREWS CLEAR 59 45 59 CALM 29.87S  
ARTESIA CLEAR 55 5 13 S8 29.87F  
BIG SPRING CLEAR 65 50 58 NE3 29.84S  
CARLSBAD CLEAR 56 4 12 SW7 29.84F  
DRYDEN N/A 73 56 54 N8 29.79R  
FORT STOCKTON CLEAR 66 25 21 CALM 29.83R  
GUAD PASS NOT AVBL  
HOBBS CLEAR 55 36 47 VRB5 29.88S  
LAMESA NOT AVBL  
MARFA CLEAR 49 -3 11 NW3 29.98R  
MIDLAND AIRPK N/A 65 48 54 NE5 29.86S  
MIDLAND INTL CLEAR 63 47 55 NE6 29.85S  
ODESSA CLEAR 64 47 53 NE8 29.86S  
PECOS CLEAR 61 17 18 CALM 29.84R  
PRESIDIO CLEAR 66 15 14 N8 29.86R  
SEMINOLE CLEAR 59 44 56 CALM 29.92S  
SNYDER PTCLDY 65 56 72 E5 29.85R  
WINK CLEAR 61 32 33 N6 29.82R  

   
..OTHER STATIONS IN TEXAS
 
 
 
CITY SKY/WX TMP DP RH WIND PRES REMARKS
 
ABILENE MOCLDY 71 69 93 SE6 29.82R FOG  
AMARILLO CLEAR 61 43 51 S18G24 29.87S  
AUSTIN CLOUDY 77 76 96 CALM 29.79R  
BROWNSVILLE CLOUDY 84 80 88 SE13 29.73S FOG  
CORPUS CHRISTI CLOUDY 83 81 94 SE13 29.74R FOG  
DALLAS FTW MOCLDY 71 70 96 NE6 29.79R FOG  
DEL RIO PTCLDY 82 75 79 E15 29.72R  
EL PASO PTCLDY 72 8 8 SW12 29.91R  
HOUSTON INT CLOUDY 80 77 90 SE8 29.81R FOG  
LUBBOCK PTCLDY 55 44 66 SE8 29.88S  
SAN ANGELO MOCLDY 70 63 78 NE3 29.80R  
SAN ANTONIO CLOUDY 79 75 87 SE6 29.79S FOG  
WACO CLOUDY 75 74 96 S6 29.79R  
WICHITA FALLS PTCLDY 60 50 69 E12 29.86S  

   
..OTHER LOCATIONS IN NEW MEXICO
 
 
 
CITY SKY/WX TMP DP RH WIND PRES REMARKS
 
ALAMOGORDO PTCLDY 55 7 14 S12 29.92S  
ALBUQUERQUE PTCLDY 57 19 22 CALM 29.93S  
CANNON AFB CLEAR 52 35 53 E6 29.84S  
CLOVIS CLEAR 52 37 56 S3 29.92F  
HOLLOMAN AFB MOCLDY 63 8 11 SE12 29.93S  
ROSWELL CLEAR 59 9 13 W8 29.84F  
RUIDOSO CLEAR 57 1 10 SW7 30.04R  
SANTA FE PTCLDY 47 18 31 MISG 29.96F  
TRUTH OR CONSE PTCLDY 55 11 17 W5 29.91S  
TUCUMCARI CLEAR 60 38 43 S16 29.84R  

 
 
 
CLICK HERE TO GO TO PREVIOUS BULLETINS.

The Nexlab TX Page
The Nexlab NM Page Main Text Page